Voltar ao catálogo

STARLINK-30148

AtivoComunicaçõesVLEO
NORAD 57617·PAYLOAD·🇺🇸 United States

Lançado Aug 11, 2023 de Cape Canaveral Space Force Station

Loading…

Próximas Passagens (próximas 24 horas)

TLE

AtualizadoSource: CelesTrak SupGP

Época: Sep 15, 2026, 01:47 UTC

1 57617C 23119R   26258.07479167  .00027807  00000+0  10069-2 0  2585
2 57617  43.0025  91.7309 0002028 271.9064 100.2338 15.27572437    13

Acompanhe STARLINK-30148 em tempo real com AllMySat

Download on the App Store